Time,TemperatureF,DewpointF,PressureIn,WindDirection,WindDirectionDegrees,WindSpeedMPH,WindSpeedGustMPH,Humidity,HourlyPrecipIn,Conditions,Clouds,dailyrainin,SoftwareType,DateUTC
2013-03-10 00:01:00,23.0,21.0,30.11,NW,323,0.0,0.0,91,0.00,,,0.10,,2013-03-10 07:01:00,
2013-03-10 00:11:00,23.0,21.0,30.11,NW,323,0.0,0.0,91,0.00,,,0.10,,2013-03-10 07:11:00,
2013-03-10 00:21:00,23.0,21.0,30.12,NW,323,0.0,0.0,92,0.00,,,0.10,,2013-03-10 07:21:00,
2013-03-10 00:31:00,23.0,21.0,30.12,NW,325,0.0,0.0,92,0.00,,,0.10,,2013-03-10 07:31:00,
2013-03-10 00:41:00,23.0,21.0,30.12,NNW,333,0.0,1.0,92,0.00,,,0.10,,2013-03-10 07:41:00,
2013-03-10 00:52:00,23.0,21.0,30.12,NNW,333,0.0,1.0,92,0.00,,,0.10,,2013-03-10 07:52:00,
2013-03-10 01:01:00,23.0,21.0,30.13,NNW,333,0.0,0.0,92,0.00,,,0.10,,2013-03-10 08:01:00,
2013-03-10 01:11:00,23.0,21.0,30.13,NNW,333,0.0,0.0,92,0.00,,,0.10,,2013-03-10 08:11:00,
2013-03-10 01:21:00,23.0,21.0,30.14,NNW,333,0.0,0.0,91,0.00,,,0.10,,2013-03-10 08:21:00,
2013-03-10 01:31:00,22.0,20.0,30.14,NNW,327,0.0,0.0,91,0.00,,,0.10,,2013-03-10 08:31:00,
2013-03-10 01:42:00,22.0,20.0,30.14,NNW,327,0.0,0.0,91,0.00,,,0.10,,2013-03-10 08:42:00,
2013-03-10 01:51:00,22.0,20.0,30.14,NNW,327,0.0,0.0,91,0.00,,,0.10,,2013-03-10 08:51:00,
2013-03-10 03:01:00,22.0,20.0,30.15,NNW,327,0.0,0.0,90,0.00,,,0.10,,2013-03-10 09:01:00,
2013-03-10 03:11:00,22.0,20.0,30.15,NNW,327,0.0,0.0,90,0.00,,,0.10,,2013-03-10 09:11:00,
2013-03-10 03:21:00,21.0,18.0,30.15,NNW,327,0.0,0.0,89,0.00,,,0.10,,2013-03-10 09:21:00,
2013-03-10 03:31:00,21.0,18.0,30.16,NNW,327,0.0,0.0,89,0.00,,,0.10,,2013-03-10 09:31:00,
2013-03-10 03:41:00,21.0,18.0,30.16,NNW,327,0.0,0.0,89,0.00,,,0.10,,2013-03-10 09:41:00,
2013-03-10 03:51:00,21.0,19.0,30.15,NNW,328,0.0,2.0,90,0.00,,,0.10,,2013-03-10 09:51:00,
2013-03-10 04:01:00,21.0,19.0,30.15,NNW,328,0.0,2.0,90,0.00,,,0.10,,2013-03-10 10:01:00,
2013-03-10 04:11:00,21.0,19.0,30.15,NNW,328,0.0,2.0,90,0.00,,,0.10,,2013-03-10 10:11:00,
2013-03-10 04:21:00,20.0,17.0,30.16,WNW,296,2.0,6.0,89,0.00,,,0.10,,2013-03-10 10:21:00,
2013-03-10 04:31:00,20.0,17.0,30.16,WNW,296,0.0,0.0,89,0.00,,,0.10,,2013-03-10 10:31:00,
2013-03-10 04:42:00,20.0,18.0,30.16,NW,319,0.0,0.0,90,0.00,,,0.10,,2013-03-10 10:42:00,
2013-03-10 04:52:00,20.0,18.0,30.16,NW,319,0.0,0.0,90,0.00,,,0.10,,2013-03-10 10:52:00,
2013-03-10 05:01:00,20.0,18.0,30.17,NNW,330,0.0,0.0,91,0.00,,,0.10,,2013-03-10 11:01:00,
2013-03-10 05:11:00,20.0,18.0,30.17,NNW,330,0.0,0.0,91,0.00,,,0.10,,2013-03-10 11:11:00,
2013-03-10 05:21:00,20.0,18.0,30.17,NNW,330,0.0,0.0,90,0.00,,,0.10,,2013-03-10 11:21:00,
2013-03-10 05:31:00,20.0,18.0,30.18,NNW,330,0.0,0.0,90,0.00,,,0.10,,2013-03-10 11:31:00,
2013-03-10 05:42:00,20.0,18.0,30.18,NNW,330,0.0,0.0,90,0.00,,,0.10,,2013-03-10 11:42:00,
2013-03-10 05:52:00,20.0,18.0,30.19,NNW,330,0.0,0.0,90,0.00,,,0.10,,2013-03-10 11:52:00,
2013-03-10 06:01:00,20.0,17.0,30.19,North,360,0.0,0.0,89,0.00,,,0.10,,2013-03-10 12:01:00,
2013-03-10 06:11:00,20.0,17.0,30.19,North,360,0.0,0.0,89,0.00,,,0.10,,2013-03-10 12:11:00,
2013-03-10 06:21:00,20.0,18.0,30.20,North,360,0.0,0.0,90,0.00,,,0.10,,2013-03-10 12:21:00,
2013-03-10 06:31:00,20.0,18.0,30.20,North,360,0.0,0.0,90,0.00,,,0.10,,2013-03-10 12:31:00,
2013-03-10 06:42:00,20.0,18.0,30.20,North,360,0.0,0.0,90,0.00,,,0.10,,2013-03-10 12:42:00,
2013-03-10 06:51:00,19.0,16.0,30.20,North,360,0.0,0.0,89,0.00,,,0.10,,2013-03-10 12:51:00,
2013-03-10 07:01:00,19.0,16.0,30.21,North,360,0.0,0.0,88,0.00,,,0.10,,2013-03-10 13:01:00,
2013-03-10 07:11:00,19.0,16.0,30.21,North,360,0.0,0.0,88,0.00,,,0.10,,2013-03-10 13:11:00,
2013-03-10 07:21:00,19.0,16.0,30.21,North,360,0.0,0.0,87,0.00,,,0.10,,2013-03-10 13:21:00,
2013-03-10 07:31:00,18.0,14.0,30.21,North,360,0.0,0.0,85,0.00,,,0.10,,2013-03-10 13:31:00,
2013-03-10 07:41:00,18.0,14.0,30.21,North,360,0.0,0.0,85,0.00,,,0.10,,2013-03-10 13:41:00,
2013-03-10 07:52:00,17.0,13.0,30.22,North,360,0.0,0.0,83,0.00,,,0.10,,2013-03-10 13:52:00,
2013-03-10 08:01:00,16.0,12.0,30.22,North,360,0.0,0.0,83,0.00,,,0.10,,2013-03-10 14:01:00,
2013-03-10 08:11:00,16.0,12.0,30.22,North,360,0.0,0.0,83,0.00,,,0.10,,2013-03-10 14:11:00,
2013-03-10 08:21:00,16.0,12.0,30.22,North,360,0.0,0.0,83,0.00,,,0.10,,2013-03-10 14:21:00,
2013-03-10 08:31:00,15.0,12.0,30.22,NE,37,0.0,2.0,87,0.00,,,0.10,,2013-03-10 14:31:00,
2013-03-10 08:41:00,15.0,12.0,30.22,NE,37,0.0,2.0,87,0.00,,,0.10,,2013-03-10 14:41:00,
2013-03-10 08:52:00,15.0,13.0,30.23,ENE,64,0.0,0.0,91,0.00,,,0.10,,2013-03-10 14:52:00,
2013-03-10 09:01:00,17.0,15.0,30.23,SE,133,1.0,4.0,93,0.00,,,0.10,,2013-03-10 15:01:00,
2013-03-10 09:11:00,17.0,15.0,30.23,SE,133,1.0,4.0,93,0.00,,,0.10,,2013-03-10 15:11:00,
2013-03-10 09:21:00,19.0,16.0,30.23,SSE,161,2.0,6.0,89,0.00,,,0.10,,2013-03-10 15:21:00,
2013-03-10 09:31:00,20.0,16.0,30.23,South,173,0.0,4.0,84,0.00,,,0.10,,2013-03-10 15:31:00,
2013-03-10 09:41:00,20.0,16.0,30.23,South,173,0.0,4.0,84,0.00,,,0.10,,2013-03-10 15:41:00,
2013-03-10 09:52:00,21.0,17.0,30.23,ENE,58,1.0,4.0,83,0.00,,,0.10,,2013-03-10 15:52:00,
2013-03-10 10:01:00,22.0,18.0,30.24,NNE,17,2.0,4.0,84,0.00,,,0.10,,2013-03-10 16:01:00,
2013-03-10 10:11:00,22.0,18.0,30.24,NNE,17,2.0,4.0,84,0.00,,,0.10,,2013-03-10 16:11:00,
2013-03-10 10:21:00,24.0,19.0,30.24,NW,310,3.0,6.0,81,0.00,,,0.10,,2013-03-10 16:21:00,
2013-03-10 10:31:00,25.0,19.0,30.24,NNW,342,0.0,6.0,78,0.00,,,0.10,,2013-03-10 16:31:00,
2013-03-10 10:41:00,25.0,19.0,30.24,NNW,342,0.0,6.0,78,0.00,,,0.10,,2013-03-10 16:41:00,
2013-03-10 10:52:00,28.0,21.0,30.24,North,349,0.0,6.0,74,0.00,,,0.10,,2013-03-10 16:52:00,
2013-03-10 11:01:00,29.0,21.0,30.24,NNE,32,3.0,6.0,72,0.00,,,0.10,,2013-03-10 17:01:00,
2013-03-10 11:11:00,29.0,21.0,30.24,NNE,32,3.0,6.0,72,0.00,,,0.10,,2013-03-10 17:11:00,
2013-03-10 11:21:00,30.0,20.0,30.25,NE,36,2.0,7.0,67,0.02,,,0.10,,2013-03-10 17:21:00,
2013-03-10 11:31:00,30.0,19.0,30.25,NNE,16,1.0,5.0,62,0.06,,,0.14,,2013-03-10 17:31:00,
2013-03-10 11:41:00,30.0,19.0,30.25,NNE,16,1.0,5.0,62,0.06,,,0.14,,2013-03-10 17:41:00,
2013-03-10 11:51:00,31.0,18.0,30.24,NE,44,2.0,8.0,59,0.08,,,0.16,,2013-03-10 17:51:00,
2013-03-10 12:01:00,29.0,16.0,30.24,NE,53,0.0,6.0,58,0.09,,,0.17,,2013-03-10 18:01:00,
2013-03-10 12:11:00,29.0,16.0,30.24,NE,53,0.0,6.0,58,0.09,,,0.17,,2013-03-10 18:11:00,
2013-03-10 12:21:00,30.0,16.0,30.24,NE,48,5.0,9.0,55,0.08,,,0.16,,2013-03-10 18:21:00,
2013-03-10 12:31:00,30.0,16.0,30.25,North,350,6.0,10.0,56,0.05,,,0.17,,2013-03-10 18:31:00,
2013-03-10 12:41:00,30.0,16.0,30.25,North,350,6.0,10.0,56,0.05,,,0.17,,2013-03-10 18:41:00,
2013-03-10 12:52:00,30.0,17.0,30.24,North,350,7.0,11.0,59,0.04,,,0.18,,2013-03-10 18:52:00,
2013-03-10 13:01:00,30.0,17.0,30.25,NNW,331,4.0,12.0,59,0.03,,,0.18,,2013-03-10 19:01:00,
2013-03-10 13:11:00,30.0,17.0,30.25,NNW,331,4.0,12.0,59,0.03,,,0.18,,2013-03-10 19:11:00,
2013-03-10 13:21:00,30.0,17.0,30.25,North,360,7.0,12.0,57,0.03,,,0.17,,2013-03-10 19:21:00,
2013-03-10 13:31:00,31.0,19.0,30.25,North,360,6.0,12.0,60,0.02,,,0.17,,2013-03-10 19:31:00,
2013-03-10 13:41:00,31.0,19.0,30.25,North,360,6.0,12.0,60,0.02,,,0.17,,2013-03-10 19:41:00,
2013-03-10 13:53:00,31.0,18.0,30.25,North,10,6.0,13.0,58,0.02,,,0.18,,2013-03-10 19:53:00,
2013-03-10 14:01:00,31.0,17.0,30.24,North,9,2.0,13.0,56,0.02,,,0.18,,2013-03-10 20:01:00,
2013-03-10 14:12:00,31.0,17.0,30.24,North,9,2.0,13.0,56,0.02,,,0.18,,2013-03-10 20:12:00,
2013-03-10 14:22:00,32.0,18.0,30.24,NW,304,4.0,11.0,55,0.01,,,0.18,,2013-03-10 20:22:00,
2013-03-10 14:32:00,32.0,17.0,30.23,North,9,5.0,12.0,54,0.01,,,0.18,,2013-03-10 20:32:00,
2013-03-10 14:42:00,32.0,17.0,30.23,North,9,5.0,12.0,54,0.01,,,0.18,,2013-03-10 20:42:00,
2013-03-10 14:52:00,32.0,16.0,30.23,North,5,5.0,10.0,52,0.01,,,0.19,,2013-03-10 20:52:00,
2013-03-10 15:02:00,32.0,15.0,30.23,North,5,4.0,12.0,50,0.01,,,0.19,,2013-03-10 21:02:00,
2013-03-10 15:12:00,32.0,15.0,30.23,North,5,4.0,12.0,50,0.01,,,0.19,,2013-03-10 21:12:00,
2013-03-10 15:22:00,32.0,15.0,30.23,NNW,329,7.0,13.0,50,0.01,,,0.19,,2013-03-10 21:22:00,
2013-03-10 15:31:00,33.0,16.0,30.23,North,355,6.0,15.0,50,0.01,,,0.19,,2013-03-10 21:31:00,
2013-03-10 15:42:00,33.0,16.0,30.23,North,355,6.0,15.0,50,0.01,,,0.19,,2013-03-10 21:42:00,
2013-03-10 15:52:00,34.0,17.0,30.24,North,10,5.0,11.0,50,0.01,,,0.20,,2013-03-10 21:52:00,
2013-03-10 16:02:00,34.0,16.0,30.24,North,350,6.0,12.0,48,0.01,,,0.20,,2013-03-10 22:02:00,
2013-03-10 16:11:00,34.0,16.0,30.24,North,350,6.0,12.0,48,0.01,,,0.20,,2013-03-10 22:11:00,
2013-03-10 16:21:00,35.0,17.0,30.24,NNW,335,2.0,12.0,48,0.01,,,0.18,,2013-03-10 22:21:00,
2013-03-10 16:32:00,35.0,16.0,30.24,NNW,327,4.0,10.0,46,0.01,,,0.18,,2013-03-10 22:32:00,
2013-03-10 16:42:00,35.0,16.0,30.24,NNW,327,4.0,10.0,46,0.01,,,0.18,,2013-03-10 22:42:00,
2013-03-10 16:52:00,35.0,16.0,30.24,NNE,20,2.0,8.0,46,0.00,,,0.18,,2013-03-10 22:52:00,
2013-03-10 17:02:00,35.0,16.0,30.24,WNW,299,0.0,7.0,45,0.00,,,0.18,,2013-03-10 23:02:00,
2013-03-10 17:11:00,35.0,16.0,30.24,WNW,299,0.0,7.0,45,0.00,,,0.18,,2013-03-10 23:11:00,
2013-03-10 17:22:00,36.0,16.0,30.23,NNW,347,1.0,5.0,44,0.00,,,0.16,,2013-03-10 23:22:00,
2013-03-10 17:31:00,36.0,17.0,30.24,NNW,347,3.0,8.0,45,0.00,,,0.16,,2013-03-10 23:31:00,
2013-03-10 17:42:00,36.0,17.0,30.24,NNW,347,3.0,8.0,45,0.00,,,0.16,,2013-03-10 23:42:00,
2013-03-10 17:52:00,35.0,16.0,30.23,NNW,336,3.0,7.0,46,0.00,,,0.16,,2013-03-10 23:52:00,
2013-03-10 18:02:00,35.0,17.0,30.24,North,350,2.0,8.0,47,0.00,,,0.16,,2013-03-11 00:02:00,
2013-03-10 18:12:00,35.0,17.0,30.24,North,350,2.0,8.0,47,0.00,,,0.16,,2013-03-11 00:12:00,
2013-03-10 18:22:00,34.0,16.0,30.24,NNW,345,3.0,7.0,47,0.00,,,0.16,,2013-03-11 00:22:00,
2013-03-10 18:32:00,33.0,16.0,30.23,NNW,336,1.0,5.0,49,0.00,,,0.16,,2013-03-11 00:32:00,
2013-03-10 18:42:00,33.0,16.0,30.23,NNW,336,1.0,5.0,49,0.00,,,0.16,,2013-03-11 00:42:00,
2013-03-10 18:53:00,32.0,16.0,30.25,NNW,329,3.0,8.0,51,0.00,,,0.16,,2013-03-11 00:53:00,
2013-03-10 19:02:00,31.0,15.0,30.25,NNW,336,3.0,7.0,52,0.00,,,0.16,,2013-03-11 01:02:00,
2013-03-10 19:12:00,31.0,15.0,30.25,NNW,336,3.0,7.0,52,0.00,,,0.16,,2013-03-11 01:12:00,
2013-03-10 19:22:00,30.0,16.0,30.25,NW,323,1.0,4.0,55,0.00,,,0.16,,2013-03-11 01:22:00,
2013-03-10 19:32:00,29.0,16.0,30.26,NW,323,0.0,0.0,58,0.00,,,0.16,,2013-03-11 01:32:00,
2013-03-10 19:42:00,29.0,16.0,30.26,NW,323,0.0,0.0,58,0.00,,,0.16,,2013-03-11 01:42:00,
2013-03-10 19:53:00,28.0,16.0,30.26,NW,323,0.0,0.0,59,0.00,,,0.16,,2013-03-11 01:53:00,
2013-03-10 20:02:00,27.0,15.0,30.26,NW,323,0.0,0.0,61,0.00,,,0.16,,2013-03-11 02:02:00,
2013-03-10 20:12:00,27.0,15.0,30.26,NW,323,0.0,0.0,61,0.00,,,0.16,,2013-03-11 02:12:00,
2013-03-10 20:22:00,26.0,15.0,30.26,NW,323,0.0,0.0,62,0.00,,,0.16,,2013-03-11 02:22:00,
2013-03-10 20:32:00,25.0,15.0,30.26,SSW,205,0.0,0.0,66,0.00,,,0.16,,2013-03-11 02:32:00,
2013-03-10 20:42:00,25.0,15.0,30.26,SSW,205,0.0,0.0,66,0.00,,,0.16,,2013-03-11 02:42:00,
2013-03-10 20:52:00,24.0,14.0,30.26,SE,140,4.0,8.0,66,0.00,,,0.16,,2013-03-11 02:52:00,
2013-03-10 21:02:00,25.0,15.0,30.25,South,170,4.0,9.0,66,0.00,,,0.16,,2013-03-11 03:02:00,
2013-03-10 21:11:00,25.0,15.0,30.25,South,170,4.0,9.0,66,0.00,,,0.16,,2013-03-11 03:11:00,
2013-03-10 21:21:00,25.0,15.0,30.25,SSE,159,4.0,7.0,65,0.00,,,0.16,,2013-03-11 03:21:00,
2013-03-10 21:31:00,26.0,16.0,30.25,South,182,4.0,9.0,64,0.00,,,0.16,,2013-03-11 03:31:00,
2013-03-10 21:42:00,26.0,16.0,30.25,South,182,4.0,9.0,64,0.00,,,0.16,,2013-03-11 03:42:00,
2013-03-10 21:52:00,25.0,15.0,30.26,SW,236,2.0,7.0,64,0.00,,,0.16,,2013-03-11 03:52:00,
2013-03-10 22:01:00,25.0,15.0,30.27,WSW,251,4.0,6.0,64,0.00,,,0.16,,2013-03-11 04:01:00,
2013-03-10 22:11:00,25.0,15.0,30.27,WSW,251,4.0,6.0,64,0.00,,,0.16,,2013-03-11 04:11:00,
2013-03-10 22:22:00,24.0,14.0,30.28,SW,234,4.0,6.0,65,0.00,,,0.16,,2013-03-11 04:22:00,
2013-03-10 22:32:00,23.0,14.0,30.28,South,175,0.0,3.0,67,0.00,,,0.16,,2013-03-11 04:32:00,
2013-03-10 22:42:00,23.0,14.0,30.28,South,175,0.0,3.0,67,0.00,,,0.16,,2013-03-11 04:42:00,
2013-03-10 22:53:00,22.0,13.0,30.28,South,190,2.0,5.0,68,0.00,,,0.16,,2013-03-11 04:53:00,
2013-03-10 23:11:00,22.0,14.0,30.28,SE,145,3.0,6.0,71,0.00,,,0.16,,2013-03-11 05:11:00,
2013-03-10 23:22:00,22.0,14.0,30.28,SE,142,4.0,7.0,71,0.00,,,0.16,,2013-03-11 05:22:00,
2013-03-10 23:32:00,22.0,14.0,30.29,South,177,3.0,5.0,71,0.00,,,0.16,,2013-03-11 05:32:00,
2013-03-10 23:42:00,22.0,14.0,30.29,South,177,3.0,5.0,71,0.00,,,0.16,,2013-03-11 05:42:00,
2013-03-10 23:52:00,22.0,14.0,30.29,South,186,4.0,6.0,71,0.00,,,0.16,,2013-03-11 05:52:00,